GFSNIL_prec_precacc_006.txt.gz
Total_Precipitation_Accumulation
0.00 0.00 0.00 0.00 0.00 0.00 0.00 0.00 0.00 0.00 0.00 0.00 0.00 0.00 0.00 0.00 0.00 0.00 0.00 0.00 0.00 0.00
0.00 0.00 0.00 0.00 0.00 0.00 0.00 0.00 0.00 0.00 0.00 0.00 0.00 0.00 0.00 0.00 0.00 0.00 0.00 0.00 0.00 0.00
0.00 0.00 0.00 0.00 0.00 0.00 0.00 0.00 0.00 0.00 0.00 0.00 0.00 0.00 0.00 0.00 0.00 0.00 0.00 0.00 0.00 0.00
0.00 0.00 0.00 0.00 0.00 0.00 0.00 0.00 0.00 0.00 0.00 0.00 0.00 0.00 0.00 0.00 0.00 0.00 0.00 0.00 0.00 0.00
0.00 0.00 0.00 0.00 0.00 0.00 0.00 0.00 0.00 0.00 0.00 0.00 0.00 0.00 0.00 0.00 0.00 0.00 0.00 0.00 0.00 0.00
0.00 0.00 0.00 0.00 0.00 0.00 0.00 0.00 0.00 0.00 0.00 0.00 0.00 0.00 0.00 0.00 0.00 0.00 0.00 0.00 0.00 0.00
0.00 0.00 0.00 0.00 0.00 0.00 0.00 0.00 0.00 0.00 0.00 0.00 0.00 0.00 0.00 0.00 0.00 0.00 0.00 0.00 0.00 0.00
0.00 0.00 0.00 0.00 0.01 0.00 0.00 0.00 0.00 0.00 0.00 0.00 0.00 0.00 0.00 0.00 0.00 0.00 0.00 0.00 0.00 0.00
0.00 0.00 0.00 0.00 0.02 0.01 0.00 0.00 0.01 0.02 0.00 0.01 0.00 0.00 0.00 0.00 0.00 0.00 0.02 0.06 0.06 0.03
0.00 0.00 0.00 0.00 0.00 0.00 0.01 0.05 0.04 0.04 0.01 0.00 0.00 0.00 0.00 0.00 0.00 0.00 0.05 0.07 0.05 0.01
0.00 0.00 0.00 0.00 0.00 0.00 0.00 0.04 0.04 0.03 0.01 0.00 0.00 0.00 0.00 0.00 0.00 0.00 0.01 0.03 0.02 0.02
0.00 0.00 0.00 0.00 0.00 0.00 0.00 0.00 0.01 0.02 0.02 0.01 0.01 0.02 0.01 0.01 0.01 0.02 0.02 0.01 0.04 0.07
0.00 0.00 0.00 0.00 0.00 0.00 0.01 0.01 0.00 0.00 0.03 0.03 0.02 0.03 0.02 0.01 0.01 0.00 0.03 0.08 0.05 0.21
0.00 0.01 0.01 0.00 0.01 0.01 0.01 0.01 0.00 0.01 0.03 0.06 0.05 0.06 0.02 0.00 0.00 0.00 0.03 0.03 0.10 0.05

GFSNIL_prec_precacc_012.txt.gz
Total_Precipitation_Accumulation
0.00 0.00 0.00 0.00 0.00 0.00 0.00 0.00 0.00 0.00 0.00 0.00 0.00 0.00 0.00 0.00 0.00 0.00 0.00 0.00 0.00 0.00
0.00 0.00 0.00 0.00 0.00 0.00 0.00 0.00 0.00 0.00 0.00 0.00 0.00 0.00 0.00 0.00 0.00 0.00 0.00 0.00 0.00 0.00
0.00 0.00 0.00 0.00 0.00 0.00 0.00 0.00 0.00 0.00 0.00 0.00 0.00 0.00 0.00 0.00 0.00 0.00 0.00 0.00 0.00 0.00
0.00 0.00 0.00 0.00 0.00 0.00 0.00 0.00 0.00 0.00 0.00 0.00 0.00 0.00 0.00 0.00 0.00 0.00 0.00 0.00 0.00 0.00
0.00 0.00 0.00 0.00 0.00 0.00 0.00 0.00 0.00 0.00 0.00 0.00 0.00 0.00 0.00 0.00 0.00 0.00 0.00 0.00 0.00 0.00
0.00 0.00 0.00 0.00 0.00 0.00 0.00 0.00 0.00 0.00 0.00 0.00 0.00 0.00 0.00 0.00 0.00 0.00 0.00 0.00 0.00 0.00
0.00 0.00 0.00 0.00 0.00 0.00 0.00 0.00 0.00 0.00 0.00 0.00 0.00 0.01 0.00 0.01 0.00 0.00 0.00 0.00 0.00 0.00
0.00 0.00 0.00 0.00 0.01 0.00 0.00 0.00 0.00 0.00 0.00 0.01 0.01 0.01 0.01 0.01 0.02 0.00 0.00 0.00 0.00 0.00
0.00 0.00 0.00 0.00 0.02 0.01 0.00 0.01 0.01 0.02 0.02 0.05 0.04 0.03 0.02 0.04 0.02 0.04 0.02 0.06 0.06 0.03
0.00 0.00 0.00 0.00 0.00 0.00 0.01 0.05 0.04 0.05 0.06 0.12 0.11 0.11 0.15 0.14 0.04 0.06 0.06 0.07 0.06 0.02
0.00 0.00 0.00 0.00 0.00 0.00 0.00 0.04 0.04 0.04 0.10 0.22 0.29 0.28 0.09 0.07 0.05 0.02 0.02 0.04 0.04 0.06
0.00 0.00 0.00 0.00 0.00 0.01 0.02 0.13 0.29 0.53 0.51 0.41 0.28 0.13 0.07 0.04 0.02 0.02 0.02 0.02 0.06 0.11
0.00 0.00 0.00 0.04 0.04 0.17 0.38 0.32 0.17 0.14 0.11 0.08 0.07 0.11 0.07 0.03 0.01 0.01 0.04 0.09 0.06 0.23
0.00 0.01 0.11 0.18 0.17 0.22 0.24 0.06 0.03 0.06 0.07 0.09 0.07 0.08 0.04 0.00 0.00 0.00 0.03 0.03 0.11 0.05

GFSNIL_prec_precacc_015.txt.gz
Total_Precipitation_Accumulation
0.00 0.00 0.00 0.00 0.00 0.00 0.00 0.00 0.00 0.00 0.00 0.00 0.00 0.00 0.00 0.00 0.00 0.00 0.00 0.00 0.00 0.00
0.00 0.00 0.00 0.00 0.00 0.00 0.00 0.00 0.00 0.00 0.00 0.00 0.00 0.00 0.00 0.00 0.00 0.00 0.00 0.00 0.00 0.00
0.00 0.00 0.00 0.00 0.00 0.00 0.00 0.00 0.00 0.00 0.00 0.00 0.00 0.00 0.00 0.00 0.00 0.00 0.00 0.00 0.00 0.00
0.00 0.00 0.00 0.00 0.00 0.00 0.00 0.00 0.00 0.00 0.00 0.00 0.00 0.00 0.00 0.00 0.00 0.00 0.00 0.00 0.00 0.00
0.00 0.00 0.00 0.00 0.00 0.00 0.00 0.00 0.00 0.00 0.00 0.00 0.00 0.00 0.00 0.00 0.00 0.00 0.00 0.00 0.00 0.00
0.00 0.00 0.00 0.00 0.00 0.00 0.00 0.00 0.00 0.00 0.00 0.00 0.01 0.00 0.00 0.00 0.00 0.00 0.00 0.00 0.00 0.00
0.00 0.00 0.00 0.00 0.00 0.00 0.00 0.00 0.00 0.00 0.00 0.01 0.01 0.03 0.04 0.04 0.03 0.01 0.02 0.01 0.00 0.00
0.00 0.00 0.00 0.00 0.01 0.00 0.00 0.00 0.00 0.00 0.00 0.01 0.02 0.04 0.05 0.04 0.09 0.10 0.08 0.03 0.01 0.00
0.00 0.00 0.00 0.00 0.02 0.01 0.00 0.01 0.01 0.02 0.02 0.05 0.04 0.03 0.03 0.10 0.18 0.22 0.20 0.16 0.14 0.03
0.00 0.00 0.00 0.00 0.00 0.00 0.01 0.05 0.04 0.05 0.06 0.12 0.11 0.16 0.25 0.32 0.22 0.24 0.16 0.15 0.12 0.02
0.00 0.00 0.00 0.00 0.00 0.00 0.00 0.04 0.04 0.04 0.10 0.22 0.38 0.57 0.45 0.39 0.24 0.19 0.09 0.07 0.05 0.06
0.00 0.00 0.00 0.00 0.00 0.01 0.02 0.13 0.29 0.53 0.51 0.42 0.33 0.24 0.14 0.13 0.07 0.10 0.09 0.04 0.06 0.11
0.00 0.00 0.00 0.04 0.04 0.17 0.38 0.32 0.17 0.14 0.11 0.08 0.07 0.12 0.09 0.06 0.03 0.03 0.05 0.09 0.06 0.23
0.00 0.01 0.11 0.18 0.17 0.22 0.24 0.06 0.03 0.06 0.10 0.16 0.10 0.09 0.05 0.01 0.02 0.01 0.03 0.03 0.11 0.05

GFSNIL_prec_precacc_021.txt.gz
Total_Precipitation_Accumulation
0.00 0.00 0.00 0.00 0.00 0.00 0.00 0.00 0.00 0.00 0.00 0.00 0.00 0.00 0.00 0.00 0.00 0.00 0.00 0.00 0.00 0.00
0.00 0.00 0.00 0.00 0.00 0.00 0.00 0.00 0.00 0.00 0.00 0.00 0.00 0.00 0.00 0.00 0.00 0.00 0.00 0.00 0.00 0.00
0.00 0.00 0.00 0.00 0.00 0.00 0.00 0.00 0.00 0.00 0.00 0.00 0.00 0.00 0.00 0.00 0.00 0.00 0.00 0.00 0.00 0.00
0.00 0.00 0.00 0.00 0.00 0.00 0.00 0.00 0.00 0.00 0.00 0.00 0.00 0.00 0.00 0.00 0.00 0.00 0.00 0.00 0.00 0.00
0.00 0.00 0.00 0.00 0.00 0.00 0.00 0.00 0.00 0.00 0.00 0.00 0.00 0.00 0.00 0.00 0.00 0.00 0.00 0.00 0.00 0.00
0.00 0.00 0.00 0.00 0.00 0.00 0.00 0.00 0.00 0.00 0.00 0.00 0.01 0.00 0.00 0.00 0.00 0.00 0.04 0.02 0.00 0.00
0.00 0.00 0.00 0.00 0.00 0.00 0.00 0.00 0.00 0.00 0.00 0.01 0.01 0.03 0.04 0.05 0.04 0.02 0.10 0.05 0.02 0.01
0.00 0.00 0.00 0.00 0.01 0.00 0.00 0.00 0.00 0.00 0.00 0.01 0.02 0.04 0.05 0.05 0.10 0.12 0.14 0.07 0.05 0.07
0.00 0.00 0.00 0.00 0.02 0.01 0.00 0.01 0.01 0.02 0.02 0.05 0.04 0.03 0.03 0.10 0.18 0.24 0.22 0.22 0.26 0.14
0.00 0.00 0.00 0.00 0.00 0.00 0.01 0.05 0.04 0.05 0.06 0.12 0.11 0.16 0.25 0.32 0.22 0.24 0.17 0.19 0.17 0.13
0.00 0.00 0.00 0.00 0.00 0.00 0.00 0.04 0.04 0.04 0.10 0.22 0.38 0.57 0.45 0.39 0.24 0.20 0.12 0.08 0.06 0.08
0.00 0.00 0.00 0.00 0.00 0.01 0.02 0.13 0.29 0.53 0.51 0.42 0.33 0.24 0.14 0.13 0.07 0.10 0.12 0.07 0.08 0.11
0.00 0.00 0.00 0.04 0.04 0.17 0.38 0.32 0.17 0.14 0.11 0.08 0.07 0.12 0.09 0.06 0.03 0.03 0.05 0.12 0.08 0.27
0.00 0.01 0.11 0.18 0.17 0.22 0.24 0.06 0.03 0.06 0.10 0.16 0.10 0.10 0.09 0.01 0.02 0.02 0.05 0.05 0.11 0.10